IRIDIUM 33 DEB, 33862

Orbit data source: Space-Track

IRIDIUM 33 DEB, 33862 is space debris in LEO originally from a launch on Sun, 14 Sep 1997 UTC launched from the Tyuratam Missile And Space Complex (TTMTR). The debris from Iridium 33, an American commercial communications satellite, has been tracked extensively since its accidental collision with the defunct Russian satellite Cosmos 2251 in 2009. This event, occurring at high speed in low Earth orbit (LEO), generated thousands of pieces of space debris, significantly increasing the risk of further collisions. The Iridium 33 debris cloud has impacted space traffic management and orbital debris mitigation strategies, making it a subject of ongoing study in space situational awareness.

Loading next visibility...
Identifier
33862, 1997-051AF
Orbit
LEO
Country
Flag of USUS
Related business
Manufacturer
Unknown
Mission
Spacecraft
Bus & Motor
Unknown
Mass
Unknown
Launch date (UTC)
1997-09-14 (28 years ago)
Launch vehicle
Unknown
Launch site
Tyuratam Missile And Space Complex (TTMTR)
Object type
Payload
Rocket body
Debris
Shape & HBR
Unknown shape, 0.3 m
Radar Cross Section
Medium (>0.1 m² and <1 m²)

Expand to show TLE details & history
Last TLE update: 7 hours ago

TLE from 7 hours ago
0 IRIDIUM 33 DEB
1 33862U 97051AF  26037.87466493  .00015813  00000-0  25248-2 0  9990
2 33862  86.4100  12.7427 0046636 231.7823 193.9956 14.71058675896488
Epoch: 2026-02-06T20:59Z
TLE epoch observation values (Epoch: 2026-02-06T20:59:31.049Z)
Latitude
65.48808°
Longitude
-71.27707°
Altitude
700.946 km
Speed
7.495 km/s
True Right ascension
01h 22m 26s
True Declination
65° 21' 25"
Sunlit
Object was in daylight at epoch
Visualization orbit readout
Latitude
Unknown
Longitude
Unknown
Altitude
Unknown
Speed
Unknown
Apparent Right ascension
Unknown
Apparent Declination
Unknown
Sunlit
N/A
Visualization observer readout
Local Sidereal Time
06:36:23
Azimuth
Unknown
Elevation
Unknown
Doppler factor
Unknown
Orbital elements
Apogee altitude
687.401 km
Perigee altitude
621.805 km
Semi-major axis
7,032.74 km
Eccentricity
0.00466
Inclination
86.41°
RAAN
12.7427°
Arg. of periapsis
231.7823°
True anomaly
193.86708°
Mean anomaly
193.9956°
Eccentric anomaly
193.93127°
Mean motion
3.68007 °/min
Orbital period
97.82 mins
BSTAR
0.0025248
Loading maneuver chart data...
Computing Atmospheric mass density...

Documentation

Showing up to 5 results
|